KINEIS-4E

Last updated on Thu Oct 23 2025 00:02:50 GMT+0000 (Coordinated Universal Time)

1 63300U 25056A 25295.58782762 .00003209 00000+0 51672-3 0 9995 2 63300 97.9975 59.1150 0000755 53.9264 306.2013 14.72194615 32164
UTC large
Height (km)
Speed (km/s)
/
Latitude / Longitude
Inclination (degrees)
Orbital Period (minutes)
Azimuth
Elevation
Range (km)
Doppler Factor

Next 0 passes for location: London (51.5072 / 0.1276)

Sorry there are no passes over London.